TimeAKST,TemperatureF,Dew PointF,Humidity,Sea Level PressureIn,VisibilityMPH,Wind Direction,Wind SpeedMPH,Gust SpeedMPH,PrecipitationIn,Events,Conditions,WindDirDegrees,DateUTC
12:16 AM,39.2,23.0,52,29.28,10.0,South,8.1,20.7,N/A,,Overcast,170,2012-12-31 09:16:00
12:36 AM,37.4,23.0,56,29.29,10.0,South,8.1,18.4,N/A,,Overcast,170,2012-12-31 09:36:00
12:56 AM,37.4,24.8,60,29.30,10.0,South,8.1,18.4,N/A,,Overcast,170,2012-12-31 09:56:00
1:16 AM,37.4,24.8,60,29.31,10.0,South,11.5,17.3,N/A,,Overcast,170,2012-12-31 10:16:00
1:36 AM,37.4,24.8,60,29.32,10.0,South,9.2,-,N/A,,Overcast,170,2012-12-31 10:36:00
1:56 AM,37.4,24.8,60,29.33,10.0,South,6.9,16.1,N/A,,Overcast,170,2012-12-31 10:56:00
2:16 AM,37.4,24.8,60,29.34,10.0,South,10.4,18.4,N/A,,Overcast,170,2012-12-31 11:16:00
2:36 AM,37.4,24.8,60,29.35,10.0,South,9.2,16.1,N/A,,Overcast,170,2012-12-31 11:36:00
2:56 AM,37.4,24.8,60,29.36,10.0,South,10.4,21.9,N/A,,Overcast,170,2012-12-31 11:56:00
3:16 AM,37.4,26.6,65,29.37,10.0,SSE,11.5,19.6,N/A,,Overcast,160,2012-12-31 12:16:00
3:36 AM,35.6,28.4,75,29.38,9.0,SSE,13.8,21.9,N/A,,Overcast,150,2012-12-31 12:36:00
3:56 AM,35.6,28.4,75,29.39,10.0,SSE,12.7,20.7,N/A,,Overcast,160,2012-12-31 12:56:00
4:16 AM,35.6,28.4,75,29.40,10.0,SSE,9.2,19.6,N/A,,Overcast,150,2012-12-31 13:16:00
4:36 AM,35.6,28.4,75,29.41,10.0,SSE,10.4,20.7,N/A,,Overcast,160,2012-12-31 13:36:00
4:56 AM,35.6,28.4,75,29.42,10.0,SSE,11.5,20.7,N/A,,Overcast,160,2012-12-31 13:56:00
5:16 AM,35.6,28.4,75,29.43,10.0,SSE,10.4,24.2,N/A,,Overcast,150,2012-12-31 14:16:00
5:36 AM,35.6,28.4,75,29.44,10.0,SSE,8.1,19.6,N/A,,Overcast,150,2012-12-31 14:36:00
5:56 AM,35.6,26.6,70,29.46,10.0,SSE,10.4,18.4,N/A,,Overcast,160,2012-12-31 14:56:00
6:16 AM,37.4,26.6,65,29.47,10.0,SSE,10.4,16.1,N/A,,Overcast,160,2012-12-31 15:16:00
6:36 AM,37.4,24.8,60,29.47,10.0,SSE,10.4,19.6,N/A,,Overcast,160,2012-12-31 15:36:00
6:56 AM,37.4,24.8,60,29.48,10.0,South,9.2,19.6,N/A,,Overcast,170,2012-12-31 15:56:00
7:16 AM,37.4,24.8,60,29.49,10.0,SSE,11.5,27.6,N/A,,Mostly Cloudy,160,2012-12-31 16:16:00
7:36 AM,37.4,24.8,60,29.49,10.0,SSE,11.5,18.4,N/A,,Mostly Cloudy,150,2012-12-31 16:36:00
7:56 AM,37.4,24.8,60,29.51,10.0,SSE,6.9,19.6,N/A,,Mostly Cloudy,160,2012-12-31 16:56:00
8:16 AM,37.4,24.8,60,29.51,10.0,SSE,10.4,16.1,N/A,,Mostly Cloudy,160,2012-12-31 17:16:00
8:36 AM,35.6,24.8,65,29.53,10.0,SSE,8.1,-,N/A,,Scattered Clouds,160,2012-12-31 17:36:00
8:56 AM,35.6,24.8,65,29.54,10.0,SSE,5.8,-,N/A,,Scattered Clouds,160,2012-12-31 17:56:00
9:16 AM,35.6,23.0,60,29.56,10.0,SSE,6.9,-,N/A,,Scattered Clouds,160,2012-12-31 18:16:00
9:36 AM,35.6,23.0,60,29.58,10.0,South,3.5,-,N/A,,Mostly Cloudy,170,2012-12-31 18:36:00
9:56 AM,35.6,21.2,56,29.59,10.0,SSE,6.9,-,N/A,,Overcast,160,2012-12-31 18:56:00
10:16 AM,35.6,21.2,56,29.61,10.0,SSE,6.9,-,N/A,,Overcast,160,2012-12-31 19:16:00
10:36 AM,35.6,21.2,56,29.63,10.0,SSE,8.1,-,N/A,,Overcast,160,2012-12-31 19:36:00
10:56 AM,35.6,21.2,56,29.64,10.0,SSE,6.9,-,N/A,,Overcast,150,2012-12-31 19:56:00
11:16 AM,35.6,21.2,56,29.65,10.0,SSE,5.8,-,N/A,,Overcast,160,2012-12-31 20:16:00
11:36 AM,35.6,21.2,56,29.67,10.0,SE,5.8,-,N/A,,Overcast,140,2012-12-31 20:36:00
11:56 AM,35.6,21.2,56,29.67,10.0,SSE,6.9,-,N/A,,Overcast,150,2012-12-31 20:56:00
12:16 PM,35.6,21.2,56,29.68,10.0,SSE,5.8,-,N/A,,Overcast,160,2012-12-31 21:16:00
12:36 PM,35.6,23.0,60,29.69,10.0,SSE,8.1,-,N/A,,Overcast,160,2012-12-31 21:36:00
12:56 PM,35.6,23.0,60,29.70,10.0,SSE,6.9,18.4,N/A,,Overcast,160,2012-12-31 21:56:00
1:16 PM,35.6,23.0,60,29.70,10.0,SSE,8.1,16.1,N/A,,Overcast,160,2012-12-31 22:16:00
1:36 PM,35.6,21.2,56,29.70,10.0,SSE,9.2,18.4,N/A,,Mostly Cloudy,160,2012-12-31 22:36:00
1:56 PM,35.6,21.2,56,29.70,10.0,SSE,9.2,18.4,N/A,,Scattered Clouds,160,2012-12-31 22:56:00
2:16 PM,33.8,21.2,60,29.71,10.0,South,8.1,-,N/A,,Partly Cloudy,170,2012-12-31 23:16:00
2:36 PM,33.8,21.2,60,29.72,10.0,SSE,9.2,-,N/A,,Scattered Clouds,160,2012-12-31 23:36:00
2:56 PM,33.8,19.4,56,29.72,10.0,SSE,6.9,-,N/A,,Mostly Cloudy,160,2012-12-31 23:56:00
3:16 PM,33.8,19.4,56,29.72,10.0,SSE,3.5,-,N/A,,Overcast,160,2013-01-01 00:16:00
3:36 PM,32.0,19.4,60,29.72,10.0,SSW,4.6,-,N/A,,Mostly Cloudy,210,2013-01-01 00:36:00
4:16 PM,32.0,19.4,60,29.73,10.0,Calm,Calm,-,N/A,,Partly Cloudy,0,2013-01-01 01:16:00
4:36 PM,30.2,19.4,64,29.73,10.0,SSW,4.6,-,N/A,,Clear,200,2013-01-01 01:36:00
4:56 PM,30.2,21.2,69,29.73,10.0,South,5.8,-,N/A,,Clear,180,2013-01-01 01:56:00
5:16 PM,30.2,21.2,69,29.73,10.0,South,5.8,-,N/A,,Clear,180,2013-01-01 02:16:00
5:36 PM,30.2,21.2,69,29.73,10.0,Calm,Calm,-,N/A,,Clear,0,2013-01-01 02:36:00
5:56 PM,30.2,19.4,64,29.74,10.0,Calm,Calm,-,N/A,,Clear,0,2013-01-01 02:56:00
6:16 PM,30.2,19.4,64,29.74,10.0,Calm,Calm,-,N/A,,Clear,0,2013-01-01 03:16:00
6:36 PM,30.2,19.4,64,29.74,10.0,South,3.5,-,N/A,,Clear,180,2013-01-01 03:36:00
6:56 PM,28.4,19.4,69,29.73,10.0,SSW,3.5,-,N/A,,Clear,200,2013-01-01 03:56:00
7:16 PM,28.4,19.4,69,29.73,10.0,Calm,Calm,-,N/A,,Clear,0,2013-01-01 04:16:00
7:36 PM,28.4,19.4,69,29.72,10.0,Calm,Calm,-,N/A,,Clear,0,2013-01-01 04:36:00
7:56 PM,28.4,19.4,69,29.71,10.0,WSW,3.5,-,N/A,,Clear,250,2013-01-01 04:56:00
8:16 PM,28.4,19.4,69,29.71,10.0,Calm,Calm,-,N/A,,Clear,0,2013-01-01 05:16:00
8:36 PM,28.4,19.4,69,29.71,10.0,West,3.5,-,N/A,,Clear,260,2013-01-01 05:36:00
8:56 PM,28.4,19.4,69,29.70,10.0,Calm,Calm,-,N/A,,Clear,0,2013-01-01 05:56:00
9:16 PM,28.4,19.4,69,29.69,10.0,Calm,Calm,-,N/A,,Clear,0,2013-01-01 06:16:00
9:36 PM,33.8,19.4,56,29.68,10.0,South,9.2,-,N/A,,Clear,190,2013-01-01 06:36:00
9:56 PM,33.8,19.4,56,29.68,10.0,South,5.8,-,N/A,,Clear,190,2013-01-01 06:56:00
10:16 PM,35.6,19.4,52,29.68,10.0,South,11.5,23.0,N/A,,Clear,190,2013-01-01 07:16:00
10:36 PM,35.6,19.4,52,29.68,10.0,SSW,10.4,-,N/A,,Clear,210,2013-01-01 07:36:00
10:56 PM,35.6,19.4,52,29.68,10.0,SSW,12.7,19.6,N/A,,Clear,200,2013-01-01 07:56:00
11:16 PM,35.6,19.4,52,29.67,10.0,SSW,8.1,17.3,N/A,,Clear,200,2013-01-01 08:16:00
11:36 PM,35.6,21.2,56,29.67,10.0,SSW,8.1,-,N/A,,Partly Cloudy,210,2013-01-01 08:36:00
11:56 PM,35.6,19.4,52,29.65,10.0,South,4.6,-,N/A,,Mostly Cloudy,190,2013-01-01 08:56:00